Location: Ailingen
(47.6833°N, 9.5000°E)
Time: 11:28:57
(UTC+00:00)

Resurs 01 Rocket - Pass Details

Date: 18 November 2025
Orbit: 626 x 637 km, 97.7° (Epoch: 11 December)

Event Time Altitude Azimuth Distance (km) Brightness Sun altitude
Exits shadow 17:30:11 16° 23° (NNE) 1,646 3.4 -18.0°
Drops below altitude 10° 17:31:28 10° 10° (N) 2,035 4.0 -18.2°
Sets 17:33:58 0° 358° (N) 2,948 5.0 -18.6°
